Precipitable_Water
0.43 0.43 0.44 0.45 0.44 0.43 0.42 0.43 0.43 0.44 0.46 0.51 0.53 0.55 0.55 0.56 0.58 0.61 0.65 0.69 0.73 0.75 0.78 0.80 0.83 0.85 0.88 0.91 0.93 0.94 0.94 0.82 0.75 0.73 0.72 0.81 0.92 0.94 0.90 0.88 0.82 0.83 0.82 0.70 0.64 0.58 0.51 0.53 0.54 0.58 0.53 0.52 0.45 0.41 0.46 0.42 0.44 0.44 0.34 0.31 0.28 0.30 0.29 0.36 0.34 0.39 0.46 0.39 0.42 0.44 0.47 0.45 0.34 0.44 0.56 0.65 0.60 0.60 0.62 0.59 0.72 0.89 0.95 0.97 1.07 1.21 1.31 1.39
0.43 0.43 0.44 0.45 0.45 0.43 0.42 0.42 0.43 0.43 0.46 0.49 0.52 0.54 0.55 0.56 0.57 0.60 0.63 0.67 0.71 0.73 0.76 0.79 0.82 0.85 0.88 0.92 0.95 0.95 0.90 0.80 0.70 0.72 0.72 0.93 0.94 0.92 0.90 0.85 0.85 0.85 0.80 0.60 0.54 0.54 0.51 0.50 0.54 0.57 0.50 0.45 0.52 0.43 0.45 0.36 0.46 0.36 0.35 0.35 0.30 0.35 0.36 0.43 0.46 0.46 0.46 0.45 0.47 0.46 0.49 0.49 0.43 0.51 0.58 0.48 0.47 0.55 0.52 0.56 0.64 0.72 0.89 1.01 1.11 1.27 1.36 1.43
0.43 0.43 0.44 0.45 0.45 0.44 0.42 0.41 0.41 0.42 0.44 0.48 0.51 0.53 0.53 0.55 0.57 0.59 0.62 0.66 0.71 0.73 0.76 0.80 0.83 0.86 0.90 0.94 0.94 0.96 0.86 0.72 0.69 0.63 0.80 0.96 0.91 0.91 0.89 0.86 0.86 0.85 0.72 0.58 0.62 0.60 0.55 0.54 0.56 0.54 0.49 0.45 0.51 0.44 0.44 0.43 0.39 0.43 0.37 0.33 0.35 0.42 0.44 0.46 0.48 0.49 0.53 0.52 0.47 0.45 0.49 0.49 0.50 0.54 0.66 0.51 0.48 0.54 0.47 0.49 0.58 0.63 0.74 0.87 1.03 1.16 1.24 1.34
0.43 0.43 0.44 0.45 0.45 0.45 0.43 0.42 0.41 0.42 0.43 0.47 0.50 0.52 0.53 0.53 0.56 0.58 0.61 0.65 0.70 0.73 0.76 0.80 0.83 0.87 0.92 0.94 0.96 0.94 0.82 0.67 0.54 0.68 0.89 0.94 0.90 0.92 0.88 0.88 0.86 0.84 0.76 0.69 0.68 0.63 0.62 0.60 0.59 0.55 0.48 0.45 0.47 0.49 0.37 0.46 0.36 0.45 0.38 0.33 0.38 0.46 0.42 0.47 0.49 0.50 0.54 0.57 0.49 0.47 0.51 0.46 0.54 0.58 0.58 0.58 0.50 0.48 0.55 0.63 0.59 0.58 0.72 0.85 1.05 1.17 1.26 1.24
0.42 0.42 0.43 0.44 0.45 0.45 0.45 0.43 0.42 0.42 0.43 0.46 0.50 0.51 0.52 0.53 0.54 0.58 0.60 0.65 0.70 0.73 0.77 0.81 0.82 0.87 0.92 0.95 0.96 0.94 0.70 0.48 0.53 0.80 0.98 0.93 0.93 0.91 0.89 0.89 0.87 0.84 0.77 0.70 0.67 0.63 0.63 0.59 0.56 0.51 0.47 0.40 0.44 0.43 0.42 0.44 0.45 0.44 0.38 0.43 0.43 0.46 0.41 0.47 0.51 0.53 0.52 0.56 0.52 0.50 0.44 0.43 0.59 0.59 0.60 0.63 0.50 0.47 0.59 0.68 0.72 0.76 0.85 0.90 1.04 1.08 1.22 1.27
0.41 0.42 0.43 0.43 0.44 0.45 0.46 0.45 0.43 0.43 0.43 0.45 0.48 0.51 0.51 0.52 0.53 0.56 0.60 0.64 0.70 0.74 0.78 0.82 0.84 0.87 0.93 0.97 0.96 0.88 0.66 0.33 0.64 0.78 1.02 0.95 0.95 0.92 0.91 0.91 0.92 0.86 0.77 0.67 0.63 0.60 0.58 0.54 0.53 0.43 0.43 0.42 0.39 0.35 0.41 0.42 0.47 0.32 0.40 0.43 0.45 0.47 0.43 0.49 0.49 0.52 0.53 0.51 0.50 0.47 0.51 0.56 0.53 0.52 0.64 0.66 0.61 0.66 0.79 0.81 0.82 0.89 0.94 1.03 1.14 1.22 1.12 1.25
0.40 0.41 0.42 0.43 0.44 0.45 0.46 0.46 0.45 0.44 0.43 0.44 0.47 0.50 0.51 0.52 0.53 0.56 0.59 0.62 0.70 0.74 0.78 0.81 0.86 0.90 0.94 0.99 0.95 0.82 0.62 0.60 0.77 0.94 0.95 0.98 0.97 0.96 0.96 0.95 0.93 0.83 0.76 0.65 0.62 0.56 0.57 0.53 0.50 0.44 0.44 0.41 0.43 0.39 0.43 0.43 0.47 0.39 0.35 0.44 0.45 0.50 0.47 0.50 0.48 0.52 0.52 0.52 0.50 0.56 0.61 0.51 0.53 0.45 0.70 0.67 0.77 0.81 0.84 0.89 0.89 0.95 1.05 1.09 1.05 1.33 1.23 1.02
0.39 0.40 0.41 0.42 0.44 0.45 0.46 0.47 0.46 0.45 0.44 0.44 0.46 0.48 0.51 0.52 0.53 0.55 0.58 0.61 0.69 0.74 0.78 0.82 0.88 0.91 0.96 0.91 0.78 0.65 0.63 0.59 0.79 1.05 0.98 0.98 0.99 0.99 0.97 0.95 0.88 0.80 0.72 0.66 0.61 0.57 0.59 0.50 0.47 0.50 0.45 0.38 0.41 0.40 0.45 0.42 0.45 0.38 0.37 0.43 0.45 0.48 0.49 0.52 0.52 0.51 0.53 0.55 0.61 0.61 0.53 0.51 0.58 0.61 0.72 0.69 0.78 0.85 0.90 0.95 0.94 0.97 1.06 1.09 1.05 1.29 1.51 1.22
0.38 0.38 0.40 0.42 0.43 0.45 0.46 0.47 0.47 0.46 0.46 0.45 0.46 0.47 0.50 0.52 0.53 0.55 0.57 0.60 0.67 0.73 0.79 0.85 0.89 0.92 1.00 0.91 0.73 0.60 0.56 0.77 0.90 1.03 1.00 0.96 0.99 0.99 0.98 0.89 0.92 0.79 0.75 0.74 0.69 0.64 0.61 0.51 0.53 0.51 0.41 0.42 0.49 0.42 0.46 0.43 0.36 0.44 0.42 0.46 0.46 0.46 0.49 0.50 0.50 0.51 0.52 0.54 0.60 0.55 0.51 0.60 0.66 0.77 0.68 0.77 0.82 0.88 0.92 0.91 0.90 0.94 0.97 1.06 1.04 1.31 1.45 1.36
0.37 0.37 0.39 0.40 0.42 0.44 0.46 0.46 0.46 0.47 0.47 0.47 0.47 0.48 0.49 0.51 0.53 0.54 0.56 0.59 0.65 0.73 0.80 0.87 0.92 0.98 0.94 0.82 0.74 0.54 0.71 0.96 1.01 1.03 0.99 0.98 1.00 0.98 0.97 0.95 0.93 0.85 0.78 0.75 0.71 0.65 0.59 0.56 0.54 0.57 0.55 0.50 0.53 0.46 0.52 0.47 0.42 0.51 0.48 0.48 0.46 0.46 0.48 0.52 0.47 0.48 0.54 0.55 0.60 0.51 0.52 0.58 0.75 0.72 0.54 0.76 0.89 0.91 0.84 0.80 0.85 0.86 0.86 0.97 1.02 1.19 1.43 1.39
0.35 0.36 0.38 0.39 0.42 0.44 0.46 0.46 0.47 0.47 0.48 0.49 0.48 0.49 0.50 0.52 0.52 0.53 0.56 0.59 0.64 0.72 0.81 0.88 0.96 1.00 0.85 0.83 0.61 0.56 0.94 0.94 1.05 1.02 0.99 1.00 0.97 0.94 0.93 0.97 0.96 0.87 0.83 0.82 0.74 0.72 0.69 0.68 0.68 0.59 0.56 0.47 0.54 0.51 0.51 0.50 0.56 0.53 0.52 0.50 0.48 0.49 0.50 0.51 0.51 0.49 0.55 0.50 0.58 0.57 0.54 0.63 0.70 0.67 0.61 0.77 0.91 0.92 0.79 0.81 0.85 0.82 0.83 0.95 1.05 1.06 1.45 1.46
0.34 0.35 0.37 0.39 0.41 0.44 0.46 0.47 0.47 0.49 0.50 0.50 0.50 0.49 0.50 0.52 0.51 0.52 0.55 0.58 0.65 0.73 0.85 0.93 1.00 1.01 0.91 0.76 0.66 0.68 0.98 0.98 1.07 1.03 1.01 1.00 0.95 0.98 1.02 1.03 1.00 0.95 0.90 0.79 0.79 0.81 0.78 0.75 0.71 0.58 0.45 0.60 0.46 0.53 0.52 0.59 0.56 0.55 0.53 0.41 0.44 0.48 0.44 0.50 0.49 0.52 0.55 0.51 0.61 0.64 0.54 0.51 0.57 0.52 0.71 0.87 0.94 0.93 0.87 0.86 0.85 0.80 0.83 0.98 1.10 1.11 1.40 1.48
0.35 0.35 0.36 0.38 0.40 0.43 0.46 0.48 0.49 0.51 0.52 0.52 0.51 0.50 0.50 0.50 0.50 0.52 0.55 0.57 0.66 0.79 0.92 0.96 1.01 0.99 0.82 0.60 0.72 0.92 1.01 1.10 1.09 1.07 1.05 1.05 1.04 1.08 1.08 1.08 1.04 1.04 0.99 0.89 0.84 0.87 0.86 0.81 0.74 0.58 0.60 0.56 0.51 0.44 0.56 0.62 0.57 0.57 0.53 0.46 0.42 0.42 0.40 0.51 0.57 0.57 0.55 0.56 0.64 0.63 0.33 0.42 0.52 0.62 0.73 0.89 0.91 0.90 0.88 0.83 0.82 0.81 0.84 1.04 1.13 1.11 1.21 1.33
0.37 0.36 0.36 0.37 0.40 0.43 0.46 0.49 0.51 0.52 0.53 0.53 0.52 0.50 0.49 0.49 0.50 0.51 0.54 0.59 0.74 0.86 0.92 0.96 0.99 0.91 0.76 0.62 0.81 1.00 1.07 1.13 1.13 1.04 1.02 1.09 1.03 1.02 1.09 1.11 1.09 1.07 1.10 0.99 0.95 0.95 0.90 0.86 0.75 0.65 0.69 0.55 0.49 0.67 0.55 0.54 0.58 0.44 0.49 0.50 0.39 0.36 0.35 0.54 0.58 0.58 0.51 0.64 0.68 0.64 0.36 0.40 0.56 0.66 0.79 0.86 0.90 0.84 0.78 0.80 0.81 0.81 0.86 1.01 0.98 0.99 1.37 1.42
0.38 0.38 0.37 0.37 0.40 0.43 0.47 0.51 0.52 0.53 0.53 0.53 0.52 0.50 0.48 0.47 0.49 0.51 0.57 0.68 0.82 0.89 0.93 0.98 0.95 0.80 0.66 0.68 0.98 1.09 1.15 1.14 0.99 0.97 1.07 1.02 1.01 0.98 1.00 1.07 1.04 1.05 1.08 1.07 1.00 0.99 0.93 0.83 0.72 0.57 0.51 0.63 0.61 0.53 0.47 0.47 0.48 0.48 0.40 0.34 0.40 0.37 0.38 0.49 0.60 0.61 0.48 0.61 0.72 0.60 0.39 0.45 0.57 0.67 0.81 0.85 0.84 0.82 0.76 0.80 0.85 0.82 0.87 0.93 0.87 0.97 1.35 1.42
0.40 0.40 0.39 0.39 0.40 0.43 0.47 0.51 0.52 0.52 0.52 0.51 0.50 0.47 0.45 0.46 0.49 0.56 0.65 0.78 0.87 0.91 0.96 0.82 0.81 0.78 0.66 0.61 0.85 1.15 1.01 0.87 0.88 1.02 1.09 1.07 1.04 0.96 1.03 1.00 1.03 1.03 1.06 1.04 1.06 0.99 0.92 0.79 0.63 0.56 0.55 0.58 0.51 0.45 0.41 0.39 0.40 0.46 0.42 0.35 0.37 0.41 0.40 0.45 0.60 0.64 0.64 0.61 0.70 0.61 0.44 0.53 0.56 0.74 0.81 0.84 0.79 0.82 0.79 0.82 0.85 0.84 0.86 0.90 0.88 0.94 1.34 1.43
0.40 0.41 0.41 0.41 0.42 0.44 0.47 0.51 0.52 0.52 0.52 0.50 0.48 0.47 0.48 0.50 0.61 0.68 0.74 0.83 0.88 0.95 0.87 0.72 0.81 0.85 0.53 0.85 1.10 0.83 0.80 0.90 1.05 1.01 1.04 1.09 1.07 1.05 1.02 0.96 0.91 0.93 1.01 1.03 1.02 0.95 0.87 0.74 0.73 0.65 0.62 0.49 0.49 0.44 0.34 0.30 0.31 0.36 0.43 0.39 0.42 0.39 0.43 0.40 0.49 0.60 0.65 0.63 0.54 0.65 0.55 0.57 0.65 0.78 0.80 0.80 0.82 0.83 0.82 0.82 0.84 0.83 0.87 0.93 0.98 1.06 1.34 1.41
0.41 0.41 0.42 0.42 0.43 0.46 0.48 0.51 0.52 0.53 0.53 0.50 0.47 0.48 0.52 0.64 0.70 0.71 0.75 0.82 0.89 0.90 0.87 0.92 0.84 0.70 0.58 0.83 0.63 0.72 0.90 0.89 0.94 1.00 1.02 1.08 1.10 1.07 1.02 0.95 0.94 0.93 0.93 0.91 1.00 0.85 0.83 0.72 0.73 0.53 0.54 0.50 0.46 0.39 0.31 0.23 0.29 0.32 0.36 0.38 0.39 0.45 0.45 0.40 0.39 0.49 0.63 0.66 0.57 0.61 0.59 0.59 0.67 0.76 0.77 0.79 0.86 0.83 0.80 0.82 0.87 0.89 0.94 1.00 1.05 1.15 1.24 1.30
0.41 0.42 0.43 0.43 0.44 0.47 0.49 0.52 0.53 0.55 0.53 0.49 0.50 0.58 0.67 0.69 0.69 0.69 0.67 0.75 0.65 0.56 0.51 0.59 0.60 0.43 0.41 0.60 0.79 0.82 0.83 0.89 1.01 1.00 0.93 0.99 1.06 1.07 1.06 1.07 0.99 0.88 0.77 0.78 0.79 0.82 0.81 0.72 0.71 0.56 0.44 0.46 0.44 0.41 0.35 0.34 0.38 0.36 0.40 0.39 0.41 0.39 0.39 0.39 0.45 0.57 0.61 0.58 0.56 0.55 0.52 0.57 0.63 0.69 0.73 0.78 0.87 0.83 0.86 0.91 0.94 0.96 0.99 1.01 1.08 1.17 1.24 1.27
0.42 0.43 0.43 0.44 0.44 0.47 0.49 0.53 0.55 0.55 0.55 0.48 0.49 0.51 0.52 0.39 0.36 0.42 0.66 0.69 0.57 0.54 0.55 0.58 0.65 0.64 0.66 0.67 0.67 0.79 0.94 1.00 0.83 0.93 0.99 1.04 0.99 0.97 0.94 0.97 0.91 0.92 0.77 0.66 0.73 0.76 0.82 0.58 0.51 0.48 0.47 0.50 0.52 0.51 0.48 0.47 0.46 0.43 0.44 0.44 0.43 0.42 0.43 0.48 0.50 0.59 0.67 0.57 0.56 0.58 0.59 0.60 0.61 0.67 0.72 0.76 0.85 0.84 0.85 0.88 0.94 1.04 1.05 1.06 1.13 1.17 1.21 1.28
0.43 0.43 0.44 0.44 0.45 0.47 0.49 0.52 0.57 0.56 0.58 0.54 0.50 0.40 0.24 0.29 0.27 0.32 0.47 0.55 0.65 0.67 0.64 0.64 0.67 0.64 0.64 0.72 0.77 0.79 0.72 0.77 0.84 0.86 0.94 1.08 0.98 0.91 0.82 0.88 0.79 0.74 0.76 0.77 0.72 0.85 0.79 0.57 0.53 0.58 0.58 0.56 0.56 0.56 0.54 0.51 0.51 0.46 0.43 0.43 0.41 0.44 0.39 0.51 0.52 0.61 0.68 0.54 0.54 0.64 0.60 0.59 0.63 0.70 0.74 0.79 0.85 0.80 0.81 0.83 0.91 0.96 1.03 1.10 1.10 1.13 1.17 1.27
0.43 0.44 0.45 0.45 0.46 0.47 0.49 0.52 0.57 0.57 0.60 0.58 0.48 0.36 0.38 0.42 0.51 0.59 0.58 0.47 0.59 0.68 0.70 0.70 0.75 0.70 0.78 0.78 0.81 0.84 0.81 0.68 0.72 0.81 0.98 0.98 0.87 0.76 0.80 0.79 0.73 0.68 0.76 0.79 0.77 0.68 0.62 0.58 0.63 0.68 0.69 0.65 0.61 0.57 0.56 0.52 0.49 0.50 0.45 0.44 0.43 0.43 0.51 0.55 0.56 0.62 0.65 0.59 0.54 0.63 0.57 0.60 0.64 0.70 0.77 0.78 0.82 0.89 0.90 0.90 0.87 0.92 1.01 1.08 1.11 1.10 1.13 1.19
0.44 0.44 0.45 0.46 0.46 0.48 0.49 0.52 0.55 0.57 0.55 0.47 0.41 0.43 0.43 0.54 0.66 0.70 0.68 0.58 0.56 0.69 0.69 0.70 0.67 0.69 0.70 0.81 0.82 0.85 0.67 0.63 0.61 0.75 0.84 0.90 0.80 0.78 0.79 0.73 0.71 0.72 0.76 0.74 0.63 0.60 0.54 0.63 0.72 0.79 0.76 0.68 0.62 0.59 0.56 0.54 0.54 0.50 0.49 0.46 0.41 0.50 0.48 0.39 0.49 0.59 0.62 0.59 0.53 0.60 0.58 0.61 0.67 0.72 0.77 0.79 0.87 0.89 0.92 0.94 0.93 0.96 0.98 1.00 1.07 1.11 1.11 1.12
0.44 0.45 0.46 0.46 0.47 0.48 0.50 0.51 0.55 0.54 0.50 0.48 0.44 0.43 0.54 0.61 0.64 0.67 0.61 0.48 0.49 0.63 0.70 0.74 0.74 0.70 0.69 0.67 0.81 0.76 0.67 0.66 0.69 0.67 0.91 0.85 0.72 0.83 0.78 0.74 0.71 0.72 0.70 0.74 0.70 0.63 0.59 0.68 0.81 0.79 0.76 0.69 0.61 0.60 0.55 0.51 0.46 0.53 0.53 0.50 0.47 0.48 0.48 0.47 0.48 0.60 0.63 0.67 0.67 0.62 0.57 0.56 0.64 0.63 0.69 0.79 0.93 0.92 0.94 0.95 0.94 0.96 1.05 1.07 1.12 1.16 1.16 1.16
0.44 0.45 0.47 0.47 0.46 0.49 0.48 0.55 0.47 0.42 0.50 0.49 0.45 0.52 0.59 0.61 0.62 0.65 0.55 0.53 0.61 0.59 0.83 0.80 0.80 0.74 0.77 0.93 0.88 0.70 0.71 0.72 0.72 0.78 0.86 0.83 0.75 0.77 0.73 0.84 0.75 0.66 0.72 0.77 0.73 0.68 0.66 0.76 0.82 0.74 0.73 0.70 0.63 0.58 0.58 0.54 0.45 0.48 0.53 0.54 0.52 0.52 0.47 0.51 0.57 0.56 0.49 0.48 0.61 0.58 0.38 0.40 0.58 0.64 0.66 0.72 0.80 0.86 0.95 0.93 0.92 0.97 1.03 1.08 1.12 1.08 1.19 1.24
0.44 0.45 0.47 0.48 0.47 0.47 0.50 0.43 0.48 0.52 0.45 0.37 0.43 0.56 0.60 0.61 0.61 0.72 0.63 0.50 0.39 0.51 0.64 0.51 0.77 0.64 0.86 0.72 0.77 0.72 0.72 0.58 0.74 0.78 0.85 0.86 0.92 0.77 0.81 0.72 0.77 0.63 0.72 0.75 0.70 0.70 0.69 0.80 0.78 0.70 0.70 0.69 0.65 0.58 0.63 0.63 0.49 0.45 0.47 0.64 0.60 0.56 0.52 0.51 0.51 0.53 0.38 0.37 0.54 0.66 0.37 0.31 0.55 0.56 0.64 0.70 0.73 0.77 0.92 0.89 0.90 0.94 1.02 1.03 1.11 1.15 1.14 1.20
0.45 0.46 0.47 0.48 0.48 0.48 0.35 0.30 0.46 0.45 0.28 0.31 0.45 0.56 0.59 0.59 0.64 0.72 0.60 0.41 0.35 0.53 0.50 0.60 0.65 0.66 0.76 0.69 0.71 0.71 0.44 0.51 0.78 0.82 0.82 0.90 0.78 0.94 0.69 0.67 0.76 0.79 0.81 0.80 0.71 0.58 0.76 0.73 0.75 0.74 0.70 0.67 0.64 0.57 0.63 0.65 0.55 0.47 0.65 0.66 0.62 0.57 0.53 0.52 0.53 0.51 0.48 0.58 0.61 0.62 0.53 0.38 0.38 0.51 0.68 0.72 0.68 0.69 0.78 0.83 0.86 0.91 0.97 1.03 1.11 1.14 1.17 1.20
0.45 0.46 0.47 0.48 0.48 0.47 0.37 0.40 0.41 0.34 0.32 0.42 0.51 0.49 0.52 0.56 0.64 0.81 0.58 0.27 0.24 0.58 0.49 0.60 0.63 0.79 0.71 0.67 0.70 0.57 0.56 0.68 0.57 0.70 0.85 0.89 0.87 0.79 0.72 0.66 0.67 0.69 0.77 0.75 0.51 0.65 0.72 0.67 0.69 0.68 0.69 0.66 0.62 0.68 0.73 0.72 0.61 0.60 0.73 0.71 0.63 0.61 0.57 0.55 0.52 0.48 0.51 0.48 0.41 0.51 0.56 0.40 0.38 0.52 0.69 0.70 0.59 0.62 0.65 0.75 0.83 0.90 0.97 1.02 1.08 1.12 1.17 1.19
0.46 0.47 0.47 0.48 0.48 0.48 0.51 0.44 0.42 0.33 0.47 0.53 0.51 0.50 0.48 0.52 0.65 0.63 0.41 0.23 0.47 0.48 0.78 0.53 0.79 0.68 0.67 0.66 0.61 0.62 0.60 0.67 0.54 0.69 0.84 0.89 0.89 0.78 0.64 0.70 0.74 0.74 0.80 0.75 0.63 0.69 0.76 0.73 0.72 0.74 0.69 0.64 0.72 0.77 0.78 0.74 0.65 0.74 0.78 0.77 0.71 0.68 0.64 0.57 0.52 0.50 0.51 0.47 0.36 0.45 0.54 0.38 0.38 0.54 0.60 0.69 0.66 0.61 0.65 0.75 0.83 0.92 0.98 1.02 1.05 1.10 1.15 1.19
0.47 0.46 0.47 0.47 0.45 0.46 0.47 0.52 0.44 0.46 0.50 0.52 0.52 0.47 0.46 0.51 0.61 0.43 0.29 0.20 0.51 0.40 0.55 0.55 0.55 0.48 0.61 0.53 0.56 0.65 0.57 0.63 0.68 0.72 0.77 0.72 0.78 0.84 0.77 0.85 0.75 0.73 0.70 0.79 0.74 0.76 0.81 0.92 0.89 0.75 0.68 0.74 0.79 0.81 0.83 0.80 0.79 0.86 0.79 0.68 0.65 0.64 0.60 0.60 0.57 0.53 0.48 0.36 0.41 0.51 0.56 0.50 0.36 0.51 0.59 0.60 0.64 0.73 0.76 0.79 0.87 0.94 1.00 1.05 1.08 1.11 1.13 1.15
0.47 0.47 0.46 0.47 0.36 0.44 0.46 0.37 0.43 0.51 0.50 0.48 0.45 0.37 0.46 0.57 0.46 0.33 0.21 0.31 0.49 0.47 0.57 0.50 0.46 0.59 0.49 0.47 0.47 0.61 0.61 0.61 0.63 0.67 0.63 0.72 0.69 0.74 0.72 0.68 0.79 0.70 0.66 0.66 0.66 0.74 0.79 0.84 0.80 0.79 0.85 0.84 0.85 0.78 0.89 0.90 0.87 0.82 0.71 0.65 0.62 0.56 0.61 0.54 0.52 0.53 0.38 0.33 0.47 0.57 0.57 0.57 0.37 0.47 0.65 0.78 0.85 0.87 0.83 0.77 0.82 0.90 0.97 1.02 1.05 1.08 1.12 1.13
0.46 0.46 0.47 0.45 0.48 0.55 0.38 0.34 0.45 0.51 0.47 0.44 0.36 0.36 0.34 0.28 0.44 0.25 0.24 0.52 0.28 0.40 0.41 0.41 0.50 0.49 0.50 0.53 0.55 0.55 0.54 0.59 0.62 0.62 0.58 0.61 0.60 0.60 0.61 0.54 0.61 0.50 0.49 0.52 0.53 0.70 0.67 0.70 0.79 0.81 0.89 0.79 0.75 0.73 0.76 0.84 0.83 0.78 0.71 0.65 0.51 0.44 0.47 0.38 0.43 0.36 0.38 0.36 0.51 0.60 0.59 0.51 0.49 0.60 0.73 0.81 0.84 0.87 0.91 0.90 0.91 0.94 0.96 0.98 1.01 1.04 1.10 1.13
0.45 0.45 0.48 0.53 0.56 0.52 0.50 0.49 0.51 0.48 0.47 0.40 0.31 0.36 0.34 0.28 0.20 0.30 0.31 0.40 0.33 0.46 0.43 0.51 0.45 0.47 0.47 0.49 0.48 0.55 0.59 0.48 0.61 0.61 0.65 0.66 0.61 0.61 0.68 0.66 0.68 0.62 0.45 0.54 0.54 0.55 0.60 0.72 0.74 0.75 0.80 0.86 0.78 0.63 0.62 0.64 0.73 0.72 0.65 0.60 0.50 0.41 0.40 0.34 0.39 0.44 0.44 0.50 0.59 0.58 0.64 0.49 0.59 0.67 0.83 0.81 0.87 0.94 0.96 0.98 1.01 0.99 0.97 0.97 1.00 1.04 1.09 1.12
0.45 0.47 0.47 0.60 0.63 0.64 0.63 0.56 0.51 0.49 0.39 0.32 0.30 0.27 0.27 0.23 0.22 0.43 0.34 0.36 0.35 0.47 0.50 0.44 0.48 0.49 0.46 0.40 0.48 0.56 0.48 0.56 0.57 0.58 0.64 0.58 0.60 0.54 0.61 0.68 0.71 0.65 0.63 0.58 0.49 0.51 0.44 0.49 0.62 0.72 0.63 0.85 0.79 0.74 0.71 0.67 0.70 0.71 0.77 0.67 0.55 0.51 0.43 0.35 0.40 0.34 0.38 0.44 0.54 0.63 0.53 0.45 0.49 0.55 0.87 0.90 0.95 0.98 1.00 1.01 1.02 1.00 1.00 1.01 1.04 1.06 1.09 1.11
0.46 0.49 0.61 0.68 0.74 0.77 0.77 0.66 0.50 0.48 0.35 0.34 0.24 0.22 0.20 0.22 0.29 0.29 0.31 0.36 0.41 0.43 0.40 0.48 0.44 0.42 0.39 0.43 0.50 0.58 0.56 0.49 0.60 0.58 0.58 0.57 0.52 0.56 0.57 0.59 0.69 0.70 0.66 0.51 0.53 0.58 0.51 0.52 0.67 0.81 0.80 0.84 0.74 0.81 0.84 0.77 0.72 0.76 0.77 0.76 0.61 0.56 0.65 0.46 0.51 0.49 0.48 0.47 0.47 0.52 0.50 0.60 0.61 0.84 0.92 0.96 0.96 0.94 0.96 0.96 0.96 0.94 0.99 1.02 1.02 1.03 1.06 1.09
0.45 0.48 0.71 0.66 0.70 0.79 0.82 0.70 0.52 0.45 0.35 0.26 0.19 0.18 0.21 0.27 0.27 0.37 0.36 0.46 0.44 0.37 0.38 0.41 0.42 0.39 0.34 0.36 0.46 0.48 0.65 0.52 0.56 0.56 0.55 0.58 0.60 0.57 0.65 0.65 0.64 0.70 0.61 0.52 0.56 0.47 0.54 0.47 0.68 0.77 0.84 0.80 0.79 0.85 0.81 0.83 0.51 0.67 0.72 0.57 0.60 0.77 0.67 0.56 0.56 0.60 0.58 0.51 0.44 0.59 0.53 0.63 0.78 0.81 0.85 0.88 0.86 0.85 0.90 0.91 0.92 0.93 0.97 0.99 0.99 1.02 1.05 1.07
0.40 0.52 0.60 0.69 0.73 0.86 0.78 0.67 0.55 0.42 0.32 0.23 0.17 0.18 0.24 0.30 0.38 0.41 0.46 0.42 0.42 0.41 0.40 0.30 0.35 0.34 0.31 0.30 0.34 0.42 0.49 0.56 0.53 0.53 0.46 0.58 0.52 0.62 0.62 0.65 0.72 0.71 0.70 0.63 0.56 0.63 0.49 0.48 0.66 0.69 0.68 0.82 0.92 0.89 0.85 0.85 0.83 0.73 0.58 0.64 0.81 0.84 0.77 0.61 0.44 0.50 0.46 0.39 0.42 0.55 0.49 0.53 0.56 0.45 0.80 0.79 0.76 0.79 0.83 0.87 0.90 0.93 0.98 0.97 1.00 1.04 1.05 1.07
0.42 0.51 0.68 0.67 0.77 0.86 0.75 0.70 0.57 0.41 0.28 0.21 0.18 0.21 0.35 0.39 0.46 0.46 0.50 0.46 0.44 0.44 0.38 0.38 0.39 0.45 0.34 0.32 0.31 0.39 0.48 0.41 0.46 0.51 0.46 0.54 0.46 0.69 0.64 0.62 0.73 0.71 0.70 0.74 0.58 0.57 0.65 0.47 0.56 0.69 0.72 0.79 0.90 0.88 0.77 0.83 0.90 0.74 0.66 0.84 0.64 0.50 0.50 0.59 0.53 0.37 0.37 0.36 0.39 0.48 0.54 0.55 0.58 0.55 0.71 0.69 0.72 0.77 0.84 0.88 0.89 0.90 0.94 0.99 1.03 1.06 1.10 1.13
0.46 0.50 0.52 0.69 0.90 0.84 0.76 0.72 0.59 0.40 0.25 0.22 0.26 0.29 0.41 0.46 0.51 0.48 0.51 0.49 0.47 0.42 0.38 0.43 0.39 0.44 0.41 0.35 0.37 0.43 0.45 0.37 0.48 0.47 0.42 0.52 0.45 0.62 0.63 0.68 0.64 0.73 0.73 0.70 0.61 0.61 0.67 0.47 0.49 0.67 0.69 0.75 0.79 0.79 0.57 0.65 0.80 0.87 0.87 0.75 0.83 0.69 0.56 0.52 0.55 0.56 0.53 0.42 0.41 0.40 0.50 0.44 0.63 0.64 0.73 0.72 0.80 0.83 0.85 0.86 0.87 0.93 0.97 1.00 1.04 1.07 1.10 1.12
0.38 0.42 0.48 0.77 0.91 0.86 0.82 0.70 0.55 0.41 0.29 0.23 0.31 0.35 0.48 0.45 0.50 0.54 0.54 0.48 0.43 0.43 0.44 0.42 0.48 0.40 0.44 0.40 0.43 0.38 0.46 0.47 0.47 0.48 0.48 0.56 0.51 0.67 0.60 0.75 0.65 0.68 0.72 0.70 0.63 0.68 0.56 0.63 0.42 0.56 0.73 0.74 0.57 0.68 0.61 0.65 0.61 0.65 0.67 0.64 0.68 0.67 0.73 0.68 0.64 0.57 0.49 0.45 0.44 0.41 0.38 0.48 0.66 0.82 0.79 0.80 0.85 0.88 0.89 0.88 0.91 0.94 0.98 1.04 1.08 1.11 1.13 1.17
0.48 0.39 0.49 0.79 0.89 0.88 0.78 0.58 0.46 0.39 0.33 0.37 0.39 0.43 0.48 0.47 0.52 0.53 0.55 0.55 0.51 0.57 0.49 0.47 0.47 0.41 0.42 0.40 0.40 0.49 0.44 0.48 0.49 0.46 0.49 0.52 0.53 0.46 0.68 0.67 0.72 0.65 0.72 0.68 0.63 0.64 0.55 0.56 0.44 0.52 0.56 0.56 0.59 0.71 0.71 0.71 0.70 0.67 0.65 0.60 0.61 0.58 0.53 0.47 0.42 0.62 0.55 0.49 0.41 0.41 0.38 0.55 0.74 0.92 0.89 0.88 0.92 0.94 0.96 0.95 0.94 0.97 1.02 1.06 1.10 1.16 1.18 1.18
0.37 0.30 0.45 0.71 0.85 0.78 0.59 0.40 0.42 0.48 0.40 0.35 0.36 0.46 0.48 0.59 0.53 0.52 0.54 0.56 0.54 0.51 0.61 0.54 0.55 0.51 0.49 0.45 0.43 0.46 0.44 0.45 0.50 0.49 0.54 0.49 0.60 0.57 0.66 0.75 0.72 0.74 0.65 0.57 0.58 0.67 0.66 0.59 0.53 0.47 0.51 0.55 0.63 0.71 0.77 0.78 0.78 0.74 0.72 0.64 0.70 0.64 0.61 0.51 0.40 0.46 0.55 0.54 0.57 0.51 0.44 0.50 0.82 0.93 0.95 0.94 0.95 0.97 0.99 0.99 0.95 0.97 1.00 1.03 1.10 1.15 1.19 1.21
0.43 0.37 0.62 0.65 0.78 0.69 0.53 0.39 0.45 0.44 0.42 0.45 0.53 0.53 0.58 0.56 0.54 0.55 0.51 0.54 0.49 0.56 0.52 0.51 0.51 0.50 0.54 0.50 0.48 0.47 0.47 0.40 0.48 0.47 0.52 0.54 0.57 0.63 0.69 0.73 0.75 0.70 0.70 0.65 0.67 0.68 0.73 0.54 0.48 0.49 0.56 0.62 0.67 0.73 0.77 0.78 0.76 0.70 0.72 0.75 0.69 0.60 0.62 0.56 0.53 0.55 0.49 0.51 0.48 0.46 0.41 0.50 0.78 0.94 0.95 0.96 0.97 0.99 0.99 0.98 0.95 0.97 1.00 1.03 1.05 1.08 1.09 1.12
0.49 0.50 0.55 0.63 0.73 0.70 0.47 0.34 0.35 0.39 0.44 0.49 0.49 0.50 0.58 0.57 0.56 0.53 0.52 0.53 0.51 0.52 0.50 0.52 0.56 0.60 0.53 0.60 0.55 0.46 0.51 0.34 0.50 0.49 0.48 0.56 0.52 0.69 0.70 0.72 0.75 0.70 0.67 0.65 0.56 0.69 0.50 0.55 0.52 0.42 0.42 0.46 0.51 0.60 0.62 0.71 0.71 0.64 0.64 0.71 0.72 0.70 0.67 0.64 0.62 0.61 0.48 0.51 0.51 0.45 0.35 0.48 0.73 0.93 0.94 0.94 0.95 0.92 0.92 0.95 0.97 0.93 0.97 1.00 1.02 1.03 1.05 1.07
0.53 0.61 0.58 0.57 0.72 0.65 0.45 0.48 0.44 0.43 0.44 0.43 0.45 0.45 0.48 0.52 0.58 0.60 0.58 0.54 0.60 0.57 0.54 0.53 0.58 0.61 0.57 0.61 0.53 0.55 0.56 0.48 0.41 0.54 0.54 0.55 0.53 0.64 0.68 0.69 0.74 0.71 0.80 0.81 0.75 0.76 0.56 0.53 0.50 0.39 0.34 0.31 0.31 0.35 0.41 0.49 0.56 0.63 0.69 0.69 0.69 0.65 0.61 0.56 0.48 0.50 0.43 0.51 0.53 0.46 0.44 0.60 0.77 0.86 0.87 0.89 0.89 0.87 0.91 0.92 0.95 0.97 0.96 0.96 0.98 0.99 1.01 1.04
0.46 0.36 0.56 0.56 0.61 0.63 0.59 0.64 0.56 0.48 0.45 0.46 0.43 0.46 0.50 0.46 0.54 0.61 0.61 0.58 0.62 0.62 0.60 0.59 0.62 0.64 0.57 0.56 0.51 0.50 0.48 0.57 0.49 0.47 0.49 0.48 0.53 0.59 0.64 0.67 0.68 0.68 0.73 0.78 0.76 0.71 0.57 0.58 0.55 0.50 0.46 0.43 0.46 0.52 0.64 0.67 0.62 0.56 0.60 0.65 0.64 0.66 0.66 0.62 0.56 0.48 0.42 0.50 0.49 0.52 0.54 0.56 0.64 0.72 0.76 0.81 0.83 0.81 0.82 0.87 0.87 0.90 0.94 0.96 0.98 0.98 1.00 1.02
0.50 0.39 0.44 0.41 0.53 0.57 0.55 0.59 0.54 0.53 0.45 0.53 0.41 0.50 0.45 0.47 0.51 0.54 0.65 0.52 0.61 0.59 0.59 0.59 0.58 0.52 0.54 0.53 0.49 0.47 0.50 0.48 0.53 0.51 0.50 0.49 0.54 0.56 0.64 0.65 0.66 0.68 0.70 0.69 0.76 0.67 0.58 0.51 0.53 0.53 0.53 0.55 0.59 0.59 0.65 0.66 0.59 0.62 0.59 0.58 0.64 0.64 0.63 0.59 0.51 0.46 0.55 0.49 0.40 0.55 0.60 0.54 0.58 0.69 0.72 0.75 0.80 0.81 0.84 0.86 0.87 0.90 0.92 0.94 0.96 0.98 0.99 0.98
0.37 0.45 0.52 0.57 0.44 0.44 0.44 0.47 0.55 0.52 0.56 0.55 0.48 0.55 0.48 0.47 0.49 0.46 0.56 0.61 0.62 0.64 0.53 0.57 0.56 0.57 0.56 0.51 0.50 0.41 0.45 0.45 0.46 0.43 0.51 0.54 0.52 0.54 0.53 0.61 0.59 0.65 0.66 0.64 0.74 0.64 0.56 0.48 0.55 0.54 0.53 0.57 0.61 0.61 0.65 0.65 0.65 0.66 0.62 0.60 0.60 0.63 0.62 0.56 0.55 0.57 0.57 0.45 0.40 0.54 0.60 0.55 0.61 0.69 0.75 0.79 0.81 0.80 0.83 0.86 0.90 0.92 0.93 0.94 0.94 0.92 0.92 0.92
0.48 0.51 0.49 0.61 0.43 0.48 0.48 0.52 0.55 0.55 0.53 0.54 0.51 0.52 0.47 0.47 0.46 0.52 0.51 0.53 0.55 0.55 0.57 0.46 0.50 0.54 0.55 0.57 0.53 0.46 0.49 0.38 0.40 0.48 0.47 0.47 0.48 0.47 0.45 0.52 0.61 0.63 0.61 0.60 0.64 0.68 0.58 0.51 0.55 0.56 0.52 0.54 0.58 0.61 0.64 0.61 0.63 0.65 0.63 0.60 0.61 0.61 0.61 0.61 0.60 0.62 0.59 0.54 0.54 0.58 0.60 0.59 0.68 0.72 0.79 0.83 0.87 0.87 0.88 0.93 0.92 0.89 0.88 0.89 0.89 0.87 0.86 0.88
0.43 0.37 0.37 0.48 0.46 0.42 0.46 0.51 0.54 0.53 0.49 0.60 0.49 0.53 0.51 0.49 0.46 0.51 0.56 0.52 0.47 0.51 0.61 0.49 0.50 0.53 0.56 0.57 0.58 0.49 0.51 0.50 0.47 0.40 0.48 0.46 0.45 0.48 0.45 0.48 0.51 0.58 0.59 0.55 0.59 0.67 0.54 0.48 0.57 0.56 0.49 0.50 0.56 0.60 0.63 0.62 0.62 0.58 0.63 0.63 0.61 0.61 0.62 0.63 0.62 0.64 0.64 0.60 0.61 0.59 0.58 0.57 0.74 0.84 0.85 0.90 0.89 0.91 0.90 0.86 0.86 0.87 0.86 0.85 0.84 0.83 0.84 0.85
0.54 0.53 0.47 0.32 0.27 0.33 0.42 0.48 0.49 0.50 0.48 0.53 0.49 0.53 0.52 0.53 0.50 0.55 0.54 0.60 0.53 0.50 0.54 0.51 0.57 0.57 0.61 0.59 0.56 0.52 0.55 0.52 0.50 0.48 0.49 0.48 0.39 0.50 0.43 0.45 0.55 0.49 0.53 0.52 0.55 0.58 0.59 0.51 0.57 0.54 0.45 0.45 0.53 0.54 0.57 0.59 0.60 0.58 0.57 0.58 0.59 0.58 0.53 0.59 0.56 0.63 0.59 0.55 0.58 0.57 0.53 0.54 0.73 0.85 0.87 0.86 0.84 0.83 0.81 0.83 0.83 0.84 0.87 0.85 0.82 0.82 0.82 0.84
0.56 0.59 0.55 0.39 0.26 0.38 0.35 0.46 0.49 0.47 0.42 0.52 0.53 0.55 0.52 0.55 0.59 0.60 0.53 0.62 0.63 0.62 0.60 0.58 0.60 0.57 0.55 0.53 0.49 0.50 0.54 0.53 0.52 0.52 0.52 0.53 0.55 0.53 0.53 0.51 0.53 0.50 0.50 0.50 0.59 0.52 0.55 0.52 0.48 0.49 0.42 0.42 0.52 0.55 0.54 0.53 0.52 0.46 0.52 0.59 0.64 0.63 0.64 0.63 0.65 0.66 0.64 0.65 0.55 0.48 0.51 0.67 0.75 0.82 0.76 0.78 0.81 0.81 0.81 0.81 0.81 0.84 0.86 0.84 0.81 0.80 0.82 0.84
Wind_Speed
12 12 13 13 13 13 13 13 12 12 12 11 11 12 12 13 13 14 15 15 15 16 16 17 17 17 18 18 19 20 20 20 21 20 19 20 21 21 22 23 22 20 20 20 19 19 19 18 18 18 17 16 15 14 13 13 13 13 12 12 13 14 15 16 17 18 18 19 20 20 18 18 20 19 19 20 21 23 24 26 26 27 28 27 25 28 31 32
12 12 13 13 13 13 13 13 13 12 12 11 11 12 13 13 14 14 15 15 15 15 16 16 17 17 17 18 19 20 19 20 20 19 18 19 20 21 22 22 20 19 19 19 18 18 17 17 18 18 16 15 14 13 12 12 11 10 10 10 11 12 13 14 15 16 16 18 18 19 18 17 19 19 19 19 20 20 22 24 26 27 27 26 26 28 31 31
12 13 13 13 14 14 13 13 13 12 12 12 12 12 13 13 14 14 15 15 15 15 16 16 17 17 17 18 18 19 19 19 18 17 18 19 20 21 22 21 19 17 18 18 17 17 17 17 17 16 14 14 13 12 11 11 9 9 8 9 10 10 11 13 14 14 15 16 16 17 16 16 17 18 18 19 20 20 22 23 24 26 27 28 28 29 31 30
12 13 13 14 14 14 14 13 13 12 12 12 12 12 13 13 14 14 15 15 15 15 15 16 16 17 17 17 18 18 18 17 16 16 17 18 20 21 21 20 18 17 18 18 17 17 17 16 16 15 13 13 13 11 10 9 8 7 6 7 9 8 9 11 12 13 14 14 14 15 15 15 16 16 17 17 18 20 22 23 24 26 27 28 29 30 30 30
12 13 13 14 14 14 14 13 13 12 12 12 12 12 13 13 14 14 15 15 15 15 15 16 16 16 16 17 17 17 17 15 15 16 17 18 19 19 20 19 17 17 18 18 17 17 17 17 16 15 13 13 12 10 9 7 6 5 6 6 7 6 7 10 11 12 12 12 13 14 13 14 15 16 18 18 18 20 21 22 24 25 26 26 27 30 31 30
12 13 13 14 14 14 14 13 13 13 12 12 12 12 13 13 14 14 15 15 15 15 15 15 16 16 16 16 15 16 15 14 15 16 15 17 18 18 19 19 17 17 17 17 17 17 18 17 17 15 13 13 10 9 8 6 5 4 5 5 6 5 6 7 9 10 11 11 12 13 13 14 14 15 16 17 18 19 20 21 23 25 25 24 25 28 32 30
12 13 13 14 14 14 14 13 13 13 12 12 12 12 13 13 14 14 15 15 15 15 15 15 16 16 16 15 14 15 14 14 15 14 14 16 17 17 18 18 18 17 18 17 17 18 18 17 16 14 13 12 9 8 7 7 6 4 5 5 5 6 6 6 7 8 9 11 12 12 12 13 14 14 14 15 16 17 18 20 21 23 24 25 25 27 31 32
13 13 14 14 14 14 14 13 13 13 12 12 12 12 13 13 13 14 14 15 15 15 15 15 15 15 15 14 13 15 14 14 14 13 13 15 16 16 17 18 18 18 18 17 17 17 17 16 15 13 12 10 8 8 8 8 7 4 4 4 4 5 6 6 7 7 7 9 11 11 11 13 14 14 14 14 14 15 16 18 19 21 23 24 27 26 29 32
13 13 14 14 14 14 14 14 13 13 13 12 12 12 13 13 13 14 14 15 15 14 14 15 15 14 14 13 13 14 14 13 13 11 12 14 15 16 16 18 18 17 18 17 16 16 17 16 14 13 11 9 8 8 8 8 7 4 3 3 4 4 5 5 5 5 6 8 9 10 10 11 12 13 14 14 13 13 15 17 18 20 21 22 25 25 26 31
13 13 14 14 15 14 14 14 13 13 13 12 12 12 13 13 13 14 14 14 14 14 14 14 14 13 13 12 12 13 13 13 12 11 11 13 15 15 16 18 17 17 18 17 16 15 16 15 15 13 11 9 8 8 8 7 6 5 4 3 3 4 4 2 3 4 5 7 8 9 9 10 11 12 13 13 12 13 14 17 17 19 21 21 24 25 25 31
13 13 14 14 15 14 14 14 14 13 13 13 13 12 12 13 13 13 14 14 14 14 14 14 13 12 12 11 10 11 13 13 12 11 11 13 14 15 16 16 17 17 17 17 16 15 15 15 14 13 11 10 8 8 7 6 6 6 5 4 3 4 3 2 3 4 5 6 8 9 9 9 11 11 12 12 12 14 15 16 16 17 20 20 22 23 24 29
13 13 14 14 15 14 14 14 14 13 13 13 13 12 12 12 12 13 13 13 14 14 14 13 12 11 11 11 10 11 13 13 11 11 11 12 14 14 15 16 16 17 17 17 16 15 15 15 13 12 11 9 9 8 8 7 7 6 6 5 4 4 2 0 1 3 5 5 7 8 8 8 10 11 10 10 12 14 14 14 14 16 18 18 19 20 22 27
13 13 14 14 15 14 14 14 14 13 13 12 12 12 12 12 12 13 13 13 13 13 13 12 10 10 10 10 10 11 13 12 11 10 11 12 14 14 15 15 15 17 17 16 16 15 15 15 12 11 11 9 8 8 8 7 7 6 6 5 4 5 3 2 1 2 3 4 6 7 7 8 10 11 9 8 10 12 12 12 13 15 17 17 18 17 18 25
13 14 14 14 15 14 14 14 14 14 13 13 12 12 12 12 12 12 12 13 13 13 12 10 9 9 9 10 10 12 12 12 11 10 11 12 14 14 14 15 14 15 17 16 16 15 15 14 12 11 11 9 8 7 7 8 7 6 6 6 5 5 3 2 2 1 2 4 4 6 7 7 8 9 8 8 8 10 10 11 12 14 16 16 16 12 13 24
13 13 14 14 15 14 14 14 14 13 13 13 12 12 12 11 11 12 12 12 12 11 10 8 9 9 10 10 10 11 11 11 11 10 10 12 13 14 14 14 14 14 16 16 16 15 15 13 12 11 10 9 9 8 7 7 7 7 7 6 7 6 3 4 3 2 2 3 4 6 6 5 7 7 6 8 8 8 10 11 12 13 14 15 15 7 9 23
13 14 14 14 15 15 14 14 14 13 13 12 12 11 11 10 11 11 11 11 11 9 8 8 9 8 9 10 9 10 10 11 11 10 10 11 13 15 14 13 14 15 15 15 15 14 14 13 12 11 10 9 9 8 7 7 7 7 7 6 6 6 5 5 4 3 3 4 5 5 5 5 6 5 6 8 9 8 9 10 11 11 12 13 14 8 9 23
13 14 14 14 15 15 14 13 13 13 12 12 11 11 10 9 10 10 10 10 9 8 8 9 9 8 8 8 8 10 10 10 11 11 11 11 12 15 16 13 14 15 14 15 15 15 14 13 12 11 10 10 8 8 7 7 7 7 7 6 6 5 6 6 4 3 5 5 6 5 5 5 5 4 6 8 8 8 8 9 9 9 10 11 12 9 12 23
14 14 14 14 15 14 14 13 13 12 12 11 10 9 8 8 9 9 9 8 8 8 9 9 7 7 7 7 8 10 10 10 11 11 11 11 11 13 15 15 14 14 15 15 15 14 14 14 12 11 10 10 8 8 6 5 6 6 7 6 6 6 5 5 4 5 6 6 6 5 4 4 4 4 6 7 8 9 8 8 8 8 8 9 10 9 14 21
14 14 14 15 14 14 14 13 12 12 11 10 9 8 7 8 9 9 8 8 8 8 8 7 6 7 7 7 8 10 10 11 11 10 10 10 10 12 13 15 15 14 14 13 14 13 13 13 13 11 9 8 6 5 4 4 5 5 6 5 5 6 5 4 4 5 6 6 5 3 3 3 3 5 6 7 8 9 9 8 8 8 9 9 10 11 14 18
14 14 14 15 14 14 13 12 12 11 10 9 8 8 8 9 9 9 9 9 8 7 8 8 7 8 9 9 9 9 10 10 10 10 10 10 10 11 12 14 15 15 13 12 13 13 12 13 12 10 8 6 5 4 4 4 5 5 6 5 5 4 4 4 4 5 6 5 4 3 3 3 4 5 6 7 8 9 9 8 7 8 9 9 10 12 14 16
14 14 14 15 15 14 13 12 11 9 9 8 7 7 7 8 8 9 9 9 8 8 9 8 7 8 9 8 8 8 9 10 10 10 9 9 10 11 13 14 14 14 13 13 13 13 12 12 11 9 8 7 6 5 5 5 5 5 5 5 4 3 3 3 3 3 4 4 3 3 3 3 4 5 6 8 9 8 8 7 7 8 9 9 10 13 14 15
14 14 15 15 15 14 13 12 11 8 8 7 7 7 7 7 9 9 8 8 9 9 8 8 8 9 9 8 8 8 10 10 10 10 8 8 9 11 13 14 13 13 13 13 13 13 12 11 10 9 8 7 7 5 5 5 5 5 4 4 4 3 3 3 3 3 3 4 3 2 3 4 4 6 7 8 9 8 6 6 7 7 9 9 10 13 14 15
14 15 15 15 15 14 13 12 10 8 7 7 7 7 7 8 9 8 7 7 9 9 8 8 8 9 9 9 8 7 9 9 9 9 7 7 9 11 12 13 13 13 13 12 11 12 12 10 9 10 10 9 8 6 5 5 5 4 4 4 3 2 3 3 2 3 3 4 4 3 3 4 5 6 7 7 7 7 5 6 6 6 9 9 9 12 13 14
15 15 15 15 15 14 13 12 9 7 7 8 7 7 7 9 9 8 7 6 8 8 8 8 8 9 9 9 6 6 8 9 8 8 6 5 7 10 12 13 13 13 13 11 9 10 10 10 10 11 11 10 9 8 6 5 5 4 4 4 3 3 3 2 2 3 3 4 4 4 4 4 5 5 5 6 6 6 6 6 6 6 9 10 10 12 13 13
15 15 15 15 15 14 13 11 8 7 8 8 8 8 8 9 9 8 7 6 7 8 8 8 9 9 8 8 6 6 8 9 9 8 5 4 6 10 12 12 13 13 12 11 10 9 10 10 10 11 11 10 10 9 7 6 6 5 5 4 3 4 4 3 3 4 5 5 4 4 5 4 4 4 5 5 5 6 6 6 6 7 9 10 11 13 14 13
15 15 15 15 15 14 12 10 8 8 9 9 8 8 9 9 9 7 6 6 7 8 8 8 8 8 9 8 6 7 8 9 9 7 5 4 6 9 11 12 13 13 11 10 10 9 9 10 10 10 10 10 9 9 7 7 7 6 5 5 5 6 6 5 5 5 5 4 3 4 6 5 3 3 4 5 5 6 7 6 7 8 9 11 12 13 14 14
15 15 15 15 15 13 11 10 10 10 9 9 8 9 9 9 8 7 6 7 7 7 8 8 8 8 9 8 6 6 8 9 8 7 5 5 6 9 10 11 12 12 11 11 11 10 9 9 10 9 10 10 9 8 7 8 9 7 6 7 7 8 7 6 6 5 5 4 3 4 5 5 3 3 4 5 5 5 7 7 7 8 10 11 12 12 13 14
15 15 15 15 14 12 11 10 10 10 9 9 8 9 9 8 7 6 5 6 7 7 7 8 9 9 10 8 5 7 8 7 7 7 6 5 6 8 10 9 10 11 10 11 11 10 8 7 7 8 9 9 8 7 7 8 8 6 6 8 8 7 7 6 6 5 4 4 3 3 5 5 4 3 4 5 6 5 6 6 7 9 10 10 11 11 12 13
15 15 15 15 14 12 10 10 10 9 9 8 8 8 8 7 6 5 5 5 7 7 7 9 10 10 11 7 6 8 7 7 7 6 6 6 6 7 9 8 9 10 10 10 10 10 9 6 5 6 7 7 6 7 7 7 7 6 6 8 7 7 7 6 6 5 4 4 3 3 4 5 4 4 4 5 5 5 6 7 8 10 10 10 10 11 11 11
15 15 15 15 13 11 10 10 10 9 9 8 8 8 7 6 5 5 5 6 6 7 8 9 10 11 10 8 7 8 7 7 7 6 6 7 7 7 8 9 9 10 10 11 10 9 9 8 6 5 6 6 6 7 7 7 7 7 7 8 7 6 6 6 5 5 5 4 3 3 4 5 5 4 5 6 6 7 7 8 9 9 10 10 10 10 11 11
15 15 15 14 12 10 10 10 9 9 9 9 8 7 6 6 5 4 5 7 7 8 9 9 10 10 10 8 7 7 7 7 6 6 6 7 7 7 8 9 9 10 11 11 11 9 10 9 7 5 5 6 7 8 8 7 8 7 7 7 6 5 5 6 4 5 5 4 3 3 3 5 6 4 5 6 7 8 9 8 8 7 8 10 11 11 11 10
16 16 15 13 11 10 9 9 9 9 9 8 7 6 5 6 6 5 7 8 7 8 8 9 10 10 9 8 7 8 8 7 6 6 5 6 7 6 6 7 8 10 10 10 11 10 9 9 8 6 5 6 7 7 8 8 7 7 7 7 6 5 5 5 4 4 4 3 3 3 4 5 5 5 4 5 6 7 8 9 8 7 7 9 10 11 10 9
16 15 14 11 10 9 9 9 9 9 8 7 6 6 5 5 6 6 7 7 7 8 8 9 9 9 9 8 8 8 7 7 7 7 5 5 6 6 6 7 7 8 8 8 10 10 9 9 10 8 6 5 6 6 6 6 6 6 6 6 5 5 5 4 4 4 3 3 2 2 4 5 4 5 4 4 6 7 7 8 8 8 8 8 10 10 10 9
16 14 12 10 9 9 9 9 9 8 8 7 6 6 5 5 6 6 7 7 8 8 9 9 9 10 9 7 7 7 6 6 7 6 6 6 6 6 7 7 7 7 7 8 8 9 9 8 8 8 6 6 6 5 4 4 5 5 5 5 5 4 4 4 3 4 3 3 2 3 5 5 4 5 5 5 7 8 8 8 8 8 8 9 9 10 10 9
15 12 10 9 9 9 10 10 9 8 8 7 6 6 6 7 7 6 7 8 8 8 9 9 8 9 10 8 7 7 6 6 7 5 5 5 5 5 6 6 7 6 7 7 7 7 8 7 7 7 6 6 6 5 5 6 5 5 5 5 5 4 4 5 4 4 4 4 4 4 5 5 5 6 5 6 8 8 8 8 8 8 8 9 9 9 9 9
13 10 9 9 9 9 9 9 8 8 8 7 6 6 7 8 7 7 7 7 8 8 9 9 8 8 9 8 8 8 6 6 6 5 5 5 5 5 5 5 5 5 5 6 6 6 7 7 7 7 7 6 5 5 6 5 5 5 5 5 4 4 5 5 5 5 5 5 5 5 5 5 6 6 6 6 7 8 8 7 8 8 8 8 8 8 8 8
11 9 9 9 9 9 8 8 8 8 8 6 6 8 9 8 8 7 8 8 8 8 7 8 8 7 8 8 8 8 7 6 6 5 5 5 5 4 5 5 4 5 5 4 5 6 5 6 6 6 6 6 6 7 7 5 4 5 4 4 5 6 6 6 5 5 5 6 5 5 5 5 5 6 5 6 6 7 8 7 7 7 7 7 7 7 7 7
11 9 9 9 9 8 8 8 8 8 8 7 8 9 9 9 8 8 9 8 8 7 6 7 8 7 7 7 8 8 7 6 6 5 5 5 4 4 5 5 4 5 5 4 5 6 5 5 6 5 5 5 6 7 8 6 5 5 4 4 5 5 5 5 6 5 5 6 5 5 5 5 6 6 5 6 6 6 7 7 6 6 6 6 6 6 6 7
11 9 9 10 9 8 8 9 9 9 8 8 9 10 9 9 10 10 10 8 7 6 6 7 8 8 7 7 7 7 7 6 6 5 4 4 4 5 4 4 5 6 6 3 3 5 5 4 5 5 4 4 5 5 5 6 6 5 4 4 4 4 4 5 5 5 6 6 5 5 5 5 6 5 5 5 5 6 6 6 5 5 5 6 6 6 6 6
11 10 10 10 9 9 9 9 9 8 8 9 10 10 9 9 10 10 10 8 6 6 7 7 7 8 8 7 7 7 6 5 5 5 5 5 5 6 5 4 5 7 7 4 3 5 5 3 4 5 4 4 4 3 2 4 5 5 4 3 3 4 5 5 5 5 6 6 5 5 5 4 5 6 5 4 5 6 6 5 5 6 6 6 5 5 6 6
11 10 11 11 10 10 9 9 9 9 9 10 10 10 10 10 10 10 9 7 7 7 7 6 6 7 7 7 7 7 6 6 5 5 6 5 5 5 6 5 5 7 7 5 4 5 4 3 3 3 3 3 2 2 1 2 3 4 3 2 3 4 5 5 4 4 5 6 5 6 6 5 5 6 5 5 5 7 7 7 7 7 7 7 6 6 7 7
11 11 12 11 11 10 9 9 10 9 9 10 11 11 11 10 10 10 9 7 7 7 7 6 7 7 7 7 7 6 6 6 5 5 6 6 5 5 7 7 6 6 5 4 5 4 3 2 2 2 1 1 2 3 3 2 3 4 3 3 3 4 4 4 4 3 5 5 5 6 6 5 5 6 6 6 7 8 8 8 9 9 8 8 8 8 8 8
11 11 12 11 11 10 9 9 10 10 10 11 11 12 12 11 10 10 9 8 8 8 8 8 8 8 7 7 6 6 6 6 6 6 6 7 6 7 8 8 8 6 4 4 5 4 3 3 2 3 3 3 3 4 4 4 4 3 3 3 3 2 3 4 4 4 5 4 5 5 4 4 5 6 7 7 8 9 9 9 10 9 9 10 10 9 9 8
12 12 11 11 11 10 9 10 10 10 11 11 11 12 12 11 11 10 9 9 9 8 8 9 9 8 7 7 6 6 7 6 6 7 6 6 7 8 8 8 7 6 5 5 5 4 3 3 3 3 3 4 4 4 4 4 4 2 2 2 2 3 4 4 3 5 5 4 4 5 4 5 6 7 8 8 9 9 9 10 10 10 10 10 10 10 9 9
12 11 11 11 11 10 10 10 10 11 11 11 11 12 12 12 12 11 10 10 9 9 9 9 9 8 8 7 7 7 7 6 6 7 7 7 8 8 8 8 6 6 6 5 5 4 3 3 2 2 2 2 2 2 3 3 3 2 2 3 2 3 5 5 4 5 4 4 4 4 5 6 7 8 8 9 10 10 10 10 10 10 10 10 10 9 9 9
12 12 12 11 11 10 10 10 9 10 11 11 11 12 11 12 12 12 11 10 10 10 9 10 10 9 8 8 8 8 8 7 7 7 7 7 8 7 8 8 6 6 7 6 5 4 3 3 3 2 3 3 3 3 3 3 3 2 3 3 1 2 4 4 4 3 4 5 3 4 7 9 9 10 9 9 10 10 9 10 10 10 10 9 9 9 9 8
12 12 12 11 12 11 11 10 9 9 11 11 11 12 11 12 12 11 11 11 11 11 10 10 10 10 10 9 9 9 9 8 8 8 8 8 8 8 8 8 6 6 7 6 5 4 3 4 4 3 4 5 5 5 4 2 1 2 3 3 1 1 2 4 3 3 4 5 2 4 9 10 10 10 10 9 9 9 9 9 9 9 9 9 9 9 8 8
12 12 12 12 12 12 11 11 10 10 10 11 11 11 11 11 11 11 11 11 11 11 11 11 11 11 11 11 9 9 9 9 9 8 8 8 8 8 8 7 6 6 6 6 6 4 3 5 5 4 5 5 5 5 4 2 1 2 2 2 1 1 2 3 4 3 4 4 3 7 10 10 9 9 9 8 8 8 8 8 8 9 9 9 8 8 8 7
12 12 12 12 12 12 12 12 11 10 11 11 11 11 11 11 11 12 11 11 11 11 10 11 12 12 12 11 9 9 9 8 9 9 9 9 8 7 7 7 7 7 6 6 6 5 5 6 6 5 5 5 5 4 3 2 2 2 2 2 1 1 2 3 3 3 3 3 4 8 10 8 8 8 8 8 8 8 8 8 8 8 8 8 8 7 7 6
13 13 13 12 12 12 12 11 11 10 11 11 11 12 11 11 11 12 11 10 11 12 10 10 12 12 11 10 8 9 10 9 9 10 9 8 9 8 8 8 8 7 7 6 7 6 6 7 6 5 5 6 6 4 3 3 3 3 3 2 1 1 1 2 3 3 3 3 5 8 9 7 7 8 8 8 9 9 8 8 8 8 8 8 8 7 6 6
13 13 13 12 12 12 12 11 11 10 11 11 11 12 11 11 12 11 11 11 11 11 10 11 11 11 9 9 9 10 11 10 10 11 10 10 10 9 9 9 8 8 8 7 7 7 6 7 7 5 5 7 7 5 5 4 3 3 4 3 2 2 2 3 3 4 5 6 7 9 9 9 9 8 8 9 9 9 8 8 8 7 8 8 7 6 5 5
13 13 13 12 12 12 11 11 11 11 11 12 12 12 11 12 12 10 10 11 11 10 11 11 10 10 9 10 10 11 12 11 12 13 12 12 12 11 11 10 9 8 8 8 7 7 6 6 7 6 7 8 8 6 6 4 3 5 5 4 4 4 4 4 4 4 5 6 8 9 9 9 9 9 9 9 9 9 9 8 8 8 7 6 6 5 5 4
Wind_Direction
322 324 326 327 328 326 324 321 320 319 319 319 319 320 321 322 323 324 323 322 322 322 322 322 323 324 324 325 325 327 329 330 332 334 335 337 339 340 339 338 336 334 334 335 335 335 335 335 332 329 326 323 318 310 302 293 287 282 276 271 265 259 254 248 244 242 241 240 238 238 236 230 232 229 227 229 224 223 224 221 219 216 214 213 212 204 199 199
320 323 325 326 326 326 325 323 320 318 318 318 319 320 321 322 322 324 324 323 323 323 323 324 325 326 326 326 327 329 330 331 333 333 334 338 342 343 341 341 340 339 340 341 340 341 341 337 334 333 331 327 321 317 309 298 290 282 275 272 265 255 251 247 243 242 239 238 237 236 235 229 227 226 225 225 224 223 223 221 219 217 212 209 207 203 200 199
319 322 323 325 325 324 324 324 322 319 317 317 318 319 321 321 322 323 324 323 323 323 324 325 327 328 328 328 329 332 332 332 335 336 338 342 344 344 345 343 343 345 347 346 346 348 346 341 338 337 337 332 326 323 317 305 293 284 277 272 265 254 251 249 243 242 241 238 233 231 230 225 223 223 222 223 226 224 220 218 216 214 209 205 206 204 201 199
319 321 322 324 324 323 323 323 322 320 317 316 317 319 320 321 322 323 324 323 323 323 324 326 328 329 329 330 332 334 335 335 337 339 342 346 348 348 349 348 348 350 350 350 351 352 350 346 343 342 342 338 334 332 323 312 302 291 279 267 265 255 252 250 242 242 242 235 226 224 224 223 221 219 218 218 223 222 218 216 215 212 207 205 205 205 203 199
318 320 322 323 323 322 322 322 322 320 317 316 316 317 319 321 322 322 323 323 323 323 324 326 329 330 330 332 334 336 339 340 338 339 345 350 351 353 354 354 355 354 353 353 353 355 353 351 349 346 346 343 343 344 333 323 321 306 287 269 262 254 253 251 243 241 238 227 221 220 220 220 217 215 214 212 215 218 216 215 214 210 207 206 207 207 204 201
318 319 321 322 323 322 321 321 321 320 317 316 315 316 318 320 321 322 323 324 323 323 324 326 329 330 331 333 335 337 340 339 337 340 348 354 355 357 359 1 1 359 356 354 356 358 356 354 353 350 349 349 349 350 345 341 342 322 300 281 259 250 253 252 242 237 231 219 216 215 216 217 215 213 211 210 213 218 218 216 214 209 207 208 210 210 206 202
317 319 321 322 323 323 322 321 320 319 317 315 315 315 318 319 321 322 323 325 324 324 325 327 328 330 332 335 337 338 338 335 335 341 351 357 358 359 2 2 3 1 357 356 358 0 358 356 354 353 355 353 351 351 353 348 345 332 310 293 267 258 255 258 248 239 228 216 216 215 216 215 210 208 209 214 217 218 217 215 213 209 209 209 209 210 206 201
316 318 320 321 322 323 322 321 320 319 317 315 314 315 316 318 320 321 323 326 326 326 326 327 328 329 333 337 338 339 337 335 337 343 353 359 359 0 2 1 2 1 358 357 360 2 0 358 356 357 358 354 355 356 356 351 346 336 317 306 298 284 268 270 263 251 233 217 216 215 217 213 204 203 207 214 217 215 213 211 211 209 209 207 207 207 204 199
316 317 319 320 322 323 323 322 321 319 317 315 314 314 315 317 319 320 323 326 327 327 327 327 328 329 334 337 340 341 339 339 341 344 352 358 359 360 0 360 1 1 359 358 1 5 2 1 358 358 0 359 2 0 2 2 350 339 330 322 315 296 278 275 258 241 222 209 206 207 216 210 201 204 206 208 211 213 210 207 210 210 207 206 206 205 201 196
316 317 319 320 321 322 323 323 322 320 317 315 314 313 314 316 318 319 322 326 328 327 327 327 327 330 334 337 344 345 342 343 345 346 352 356 358 359 357 358 1 2 1 359 1 4 2 2 0 360 4 6 7 5 8 12 359 351 348 331 311 299 288 262 226 219 204 202 198 198 207 204 200 201 204 208 210 210 208 207 210 211 210 207 205 204 199 195
317 318 319 320 322 322 323 323 323 321 318 315 314 313 313 315 317 318 321 326 328 327 328 327 327 330 333 338 345 343 343 347 347 348 352 354 356 357 356 357 0 2 2 1 359 359 358 360 3 4 6 8 9 10 9 9 2 359 2 347 334 335 311 215 203 203 191 199 195 188 198 203 199 196 203 213 211 206 208 211 210 211 209 207 208 204 197 194
318 318 320 321 322 322 323 323 324 323 319 316 314 313 312 313 316 317 320 326 327 326 328 328 329 331 336 339 339 339 345 350 349 349 351 351 351 353 356 356 358 0 1 2 359 356 357 359 4 5 3 9 13 14 15 16 12 12 21 13 360 10 8 107 161 178 176 190 189 183 192 201 199 202 210 215 209 205 211 212 206 209 206 206 209 198 191 195
319 320 321 322 323 323 322 322 323 323 320 317 314 313 312 312 316 317 320 326 326 326 328 328 330 333 338 339 339 342 347 350 351 351 350 348 348 350 353 354 356 358 359 0 358 356 357 358 2 1 0 11 14 15 20 25 28 28 38 43 32 29 41 54 60 166 171 176 178 176 186 199 204 212 217 215 205 203 213 211 204 207 202 202 203 194 201 203
320 321 321 323 324 323 322 322 323 323 322 319 315 313 311 312 316 316 320 326 326 326 327 329 332 334 337 338 339 342 345 350 350 348 350 348 347 347 349 352 355 356 357 358 355 353 355 357 2 4 3 9 12 16 20 26 38 42 46 52 46 44 51 30 32 111 172 172 159 162 179 198 207 216 222 215 202 198 207 205 203 205 201 205 199 195 212 199
321 322 322 324 325 324 323 322 323 324 323 320 316 313 311 314 316 316 321 326 326 326 328 330 329 332 335 334 339 346 349 351 347 345 349 348 349 349 347 351 355 356 357 357 355 353 356 1 7 9 9 11 16 22 21 27 41 49 50 45 40 48 37 0 14 97 156 172 147 154 174 194 200 211 220 206 195 191 196 196 197 200 200 201 194 200 213 189
321 322 323 325 325 325 324 323 324 324 323 320 318 316 314 317 317 318 323 326 326 327 331 330 326 330 336 338 346 350 348 348 348 348 347 345 351 356 353 351 356 358 358 359 1 1 2 7 10 10 13 15 23 30 30 36 39 40 45 39 31 32 22 11 22 85 128 151 145 152 170 189 195 203 205 195 189 184 189 192 190 193 194 192 201 225 194 177
319 321 322 324 325 326 325 324 324 324 324 322 321 320 319 319 320 323 326 325 327 329 331 330 326 328 336 341 344 345 346 348 349 348 344 342 349 357 0 357 356 358 358 0 4 6 7 8 7 7 13 17 24 34 35 36 31 25 30 33 29 24 22 21 27 76 105 129 142 150 164 184 195 194 190 187 184 179 179 184 180 185 190 189 208 217 171 171
318 319 320 322 324 326 325 324 324 325 326 326 325 325 323 324 325 328 328 325 329 333 333 334 333 335 336 335 338 345 351 351 349 347 345 344 346 354 1 1 359 358 358 0 2 5 6 6 10 9 11 14 22 37 38 30 29 25 26 30 29 27 28 28 40 85 103 120 134 143 157 171 184 180 178 177 176 172 165 168 168 170 178 176 188 182 161 169
316 317 319 321 322 324 325 324 324 327 329 329 330 330 328 329 329 329 329 326 327 332 332 331 332 334 332 327 332 340 344 349 354 351 348 349 349 351 357 3 4 360 359 2 2 6 7 7 11 10 8 11 18 34 32 28 41 35 33 38 33 26 31 48 65 86 104 119 119 125 155 161 168 172 174 175 173 165 155 158 161 159 163 164 165 160 155 160
314 316 317 319 321 322 323 322 323 326 329 330 329 330 329 331 333 330 325 320 317 321 322 321 319 318 322 327 336 342 343 350 354 351 350 353 356 355 354 1 7 6 5 5 3 7 12 11 9 7 8 7 9 19 17 27 46 41 40 40 35 33 33 51 70 79 98 119 124 118 136 145 157 169 174 179 178 168 157 155 158 158 162 161 153 151 152 155
312 314 316 318 319 320 319 319 320 321 326 327 325 328 329 332 333 327 323 319 315 318 316 318 320 313 315 323 333 344 348 350 351 351 352 355 0 0 357 3 9 8 7 8 8 10 16 14 8 6 7 4 10 23 24 29 39 40 44 36 26 42 37 33 52 65 89 115 132 118 115 133 154 165 168 175 183 179 167 161 158 156 159 156 149 149 152 156
310 312 314 316 317 318 315 315 315 312 320 325 323 327 329 331 330 325 325 320 316 319 319 321 324 315 316 317 316 329 339 342 348 351 351 354 358 358 1 8 9 8 8 9 10 12 15 13 6 7 14 18 21 30 33 29 31 35 44 39 22 34 40 23 25 39 78 109 118 101 112 139 158 165 167 174 184 181 170 168 165 157 158 154 147 153 156 157
309 310 313 315 316 315 312 312 309 302 309 315 316 322 327 330 331 328 326 318 315 321 324 326 325 319 324 325 316 323 330 333 343 345 344 352 354 357 5 9 9 10 11 8 9 14 16 13 15 22 27 29 26 29 41 32 29 38 45 44 25 33 58 41 31 42 70 106 110 100 115 143 160 167 171 172 174 174 168 170 171 162 162 158 149 155 161 159
307 309 311 313 314 313 310 309 304 294 299 304 306 313 321 327 330 328 323 318 319 322 321 323 325 322 325 333 332 332 330 332 342 345 339 347 358 2 4 8 10 9 6 7 11 12 8 8 22 30 30 33 30 29 41 37 29 42 56 54 44 59 84 72 77 86 86 97 100 100 110 130 152 164 172 164 157 165 170 166 160 152 155 159 157 160 162 161
306 308 310 311 312 311 308 305 297 290 295 298 299 304 314 320 323 322 322 323 320 320 322 325 327 324 325 334 335 332 337 337 340 345 339 337 1 8 5 9 12 7 5 12 16 10 3 10 25 29 27 33 33 27 36 45 34 37 53 64 70 85 95 93 99 101 95 96 88 92 114 128 146 161 171 165 150 153 163 162 155 150 149 154 160 162 160 160
304 307 309 310 310 308 305 298 293 293 294 293 293 299 308 314 317 316 322 331 322 318 327 333 332 330 328 329 326 330 340 339 340 350 348 335 355 9 9 10 10 6 9 14 16 12 9 17 27 28 26 31 32 27 37 54 48 39 45 62 79 87 92 100 108 105 107 114 90 88 120 137 143 159 171 171 158 148 153 163 160 152 149 154 162 164 161 162
303 306 308 309 308 306 299 292 292 293 292 293 293 298 304 309 313 311 319 333 325 319 327 332 334 334 329 323 323 331 333 336 346 356 353 342 352 5 5 7 9 6 10 15 12 12 15 19 24 25 26 29 30 29 37 56 57 44 43 60 75 82 87 99 105 105 116 119 87 86 118 134 140 161 171 168 163 154 155 164 160 152 153 157 163 164 163 164
301 305 307 307 306 302 292 288 290 288 286 290 292 295 300 305 308 309 320 326 317 320 329 330 331 332 330 323 321 328 327 334 346 344 346 345 346 1 1 360 6 4 10 19 9 8 19 20 21 25 27 27 27 32 43 55 52 41 46 62 73 81 90 100 98 96 106 102 81 76 107 125 145 159 163 163 161 161 166 169 161 158 160 158 160 162 160 160
300 303 306 306 304 297 289 286 286 284 282 286 291 294 299 303 304 311 320 312 310 319 328 331 333 331 332 329 322 328 331 337 340 337 349 347 334 352 356 354 8 7 9 18 10 8 15 13 21 34 29 24 25 34 45 53 50 45 54 61 64 74 87 99 103 99 94 96 87 63 93 120 141 145 145 151 155 164 176 176 165 162 163 160 157 157 156 156
299 302 304 304 301 293 287 285 283 280 279 283 288 291 297 301 304 314 310 303 312 319 321 329 333 332 335 335 326 330 336 337 342 344 347 345 334 338 346 353 12 15 11 13 10 9 13 15 27 36 30 28 35 39 41 48 55 55 56 54 53 63 77 88 102 103 92 95 94 68 89 118 132 145 148 149 157 166 173 173 165 159 159 161 160 157 156 157
298 302 302 301 297 289 284 285 283 278 277 281 284 285 290 296 305 312 297 295 310 318 324 328 329 333 337 335 325 328 334 332 339 344 337 342 343 344 351 357 7 13 12 12 10 11 17 22 22 20 29 39 40 37 34 38 46 49 48 47 45 48 68 76 78 88 95 104 97 81 95 113 128 149 153 156 164 165 166 167 164 159 155 157 159 157 155 157
298 301 300 296 292 286 281 282 284 282 277 276 278 276 278 290 296 294 292 300 309 314 321 323 325 331 332 331 327 323 327 327 331 337 334 341 348 350 356 -0 5 9 7 9 13 15 20 21 17 18 31 42 41 34 25 26 32 38 40 41 45 48 60 71 72 80 103 115 93 88 104 110 130 150 149 155 158 157 162 165 164 161 153 151 154 154 154 158
298 300 298 291 288 286 282 282 285 283 276 270 269 272 279 289 285 283 294 305 305 308 317 320 325 332 330 330 326 319 322 323 327 334 334 343 353 352 351 357 11 11 4 7 14 17 20 18 19 27 30 32 42 37 22 18 27 37 40 43 55 67 66 70 86 96 109 117 94 96 115 116 131 142 138 145 148 150 156 157 156 155 149 146 150 152 156 160
298 299 294 286 286 287 283 283 283 280 274 267 263 268 275 277 275 284 295 297 298 306 315 319 326 334 336 330 320 319 324 321 326 337 335 341 357 357 352 356 7 12 9 12 15 19 23 18 20 30 31 30 36 37 35 38 38 38 43 52 60 73 77 76 99 111 116 122 104 102 118 120 126 134 134 136 142 144 141 139 140 141 140 142 145 151 157 159
296 292 285 283 288 287 283 282 279 276 270 264 264 265 262 264 273 286 289 289 299 306 310 317 329 339 337 328 319 322 323 316 325 336 333 338 347 347 350 350 358 10 12 11 10 15 19 13 11 22 31 37 33 30 45 50 41 35 40 48 49 61 79 82 92 108 122 120 101 103 122 127 128 133 132 131 138 141 136 133 132 132 132 134 139 149 157 161
290 283 276 281 287 287 286 282 276 272 266 260 263 260 255 259 269 280 284 288 299 304 311 318 327 336 331 324 321 321 319 315 324 327 320 329 332 331 341 340 347 6 8 7 7 9 13 6 7 21 28 33 35 33 38 39 38 42 43 48 60 74 82 85 85 86 101 110 102 105 119 123 127 131 127 128 137 141 139 135 134 134 134 134 140 149 156 162
284 276 273 281 286 285 286 282 277 274 266 256 253 253 254 259 264 272 282 288 294 302 315 316 314 321 324 322 318 315 317 316 319 319 307 314 318 316 331 333 341 359 354 355 2 3 8 359 3 26 27 21 38 46 39 38 53 59 53 63 76 72 70 84 93 84 87 102 104 105 113 114 117 126 128 125 132 140 143 143 143 143 143 144 149 153 157 162
279 270 269 281 284 282 281 282 282 276 266 257 254 253 255 261 265 271 280 287 292 301 309 304 305 314 317 319 314 311 315 314 313 314 302 303 306 306 325 328 332 350 350 351 1 4 11 359 354 18 23 11 30 44 37 35 49 65 74 79 76 71 71 84 94 90 87 100 106 104 115 117 110 117 124 121 126 138 145 151 154 152 151 154 157 157 160 166
272 265 268 279 281 278 280 282 283 277 265 256 253 252 255 262 268 272 277 282 287 295 297 295 305 316 314 312 312 309 312 310 308 310 303 296 295 298 314 321 322 337 346 347 348 354 9 7 348 359 15 13 21 34 35 33 38 52 69 70 62 73 89 94 96 96 97 109 118 108 109 116 110 114 120 120 128 139 144 155 161 159 157 158 160 163 166 169
266 261 265 274 276 275 280 283 281 274 262 251 248 250 256 263 269 277 280 275 274 287 292 294 306 314 310 308 309 308 308 305 299 300 298 292 289 291 295 303 315 326 335 340 339 346 1 7 342 345 9 25 26 25 32 44 45 52 64 62 60 76 92 97 91 92 100 111 123 115 110 116 115 118 123 125 132 138 141 148 151 151 150 148 152 159 163 162
261 260 262 270 273 273 280 282 275 266 257 250 249 251 256 261 267 280 286 273 267 282 288 291 304 309 309 310 307 303 305 304 300 298 294 292 291 285 283 291 304 314 325 335 338 338 343 349 336 341 17 40 24 10 29 69 68 71 69 67 92 101 104 99 85 84 99 109 122 121 116 119 118 121 126 126 128 131 132 131 131 133 134 134 135 138 145 148
256 258 262 268 271 272 277 275 267 261 252 251 255 254 256 262 265 274 285 284 279 286 292 295 303 307 307 308 304 300 300 300 298 299 294 289 284 273 278 294 301 298 303 310 312 313 322 349 340 314 341 10 346 9 37 62 74 82 64 58 92 110 108 108 111 113 104 102 112 112 113 123 122 123 127 124 122 121 120 122 123 124 124 125 124 124 128 134
251 256 262 266 267 270 273 269 268 265 255 255 259 254 254 260 263 270 280 285 283 285 292 295 298 303 303 302 303 299 295 291 284 290 294 287 281 273 277 294 300 292 292 302 306 306 311 334 330 299 307 324 339 6 27 36 53 65 42 50 92 123 118 120 134 131 117 116 119 108 112 137 131 124 125 123 120 118 116 117 119 120 121 120 120 120 122 125
248 255 261 264 264 267 268 263 264 264 259 262 265 261 258 258 261 269 274 277 279 278 284 291 292 297 299 298 302 296 293 291 281 284 290 285 281 280 285 298 297 283 281 290 296 299 299 309 313 306 319 331 338 352 360 3 21 38 15 25 85 123 121 120 124 119 118 140 138 121 133 156 143 129 126 124 122 118 114 114 114 116 118 119 119 119 120 121
248 254 260 263 264 266 264 258 257 257 257 262 265 263 263 261 263 267 267 273 280 275 278 286 286 290 295 296 299 297 293 291 283 284 286 284 282 283 292 303 294 277 278 280 284 289 283 285 293 281 277 287 298 314 325 333 344 2 5 4 53 116 126 131 128 120 127 145 138 133 149 157 147 137 132 129 127 122 118 116 115 115 117 119 120 119 120 121
247 252 258 263 264 263 263 261 260 257 255 257 261 261 260 261 266 269 268 272 280 279 279 283 284 288 294 294 294 292 290 288 285 283 281 281 280 278 289 295 288 289 299 298 292 283 263 270 276 235 223 235 241 259 282 310 331 334 339 349 32 119 126 124 125 135 150 145 137 158 158 152 149 146 141 136 131 127 127 123 120 119 119 122 124 122 122 122
246 251 255 258 262 263 264 265 263 261 256 253 256 260 259 261 267 270 270 271 276 278 279 281 285 284 282 283 285 283 283 286 285 280 277 277 276 279 286 282 274 293 306 300 291 277 258 274 272 238 239 245 239 255 275 290 318 311 314 327 329 160 137 135 147 166 155 140 148 179 163 154 155 152 148 146 140 135 136 133 129 129 127 128 128 125 124 123
246 251 252 254 257 258 259 262 262 261 259 253 254 259 261 264 268 268 270 273 276 277 276 280 285 281 274 274 276 278 281 286 285 278 275 277 279 285 289 277 269 290 300 290 284 269 249 264 265 252 257 259 253 261 272 277 284 287 299 315 295 250 206 175 176 178 162 161 180 175 166 162 161 157 155 155 149 144 145 142 139 137 134 133 130 126 125 124
244 249 253 256 256 254 255 260 261 260 257 254 256 259 257 260 267 267 268 274 278 278 275 275 280 281 276 271 270 275 277 276 280 277 270 273 277 279 282 274 270 286 295 283 275 264 254 262 262 258 262 269 270 270 270 276 276 272 287 310 285 242 216 192 194 191 175 180 178 166 163 167 169 166 164 159 151 149 151 147 145 143 140 138 133 130 131 130
244 246 251 255 258 258 257 259 258 255 257 256 256 259 256 255 262 268 269 269 273 277 278 273 274 277 274 267 266 273 268 260 268 272 265 268 273 270 270 267 265 279 290 279 268 267 266 263 260 258 263 268 271 272 272 265 250 252 281 308 312 261 215 205 213 207 186 174 167 163 163 173 182 175 166 160 155 155 156 153 151 149 146 144 141 140 141 141
244 247 249 251 257 260 257 256 253 250 255 256 254 257 258 256 260 267 270 269 268 271 273 270 271 274 272 266 263 267 265 256 257 262 260 262 266 264 264 264 262 273 282 276 268 268 266 263 265 265 260 260 265 271 270 265 259 261 273 291 296 268 225 222 228 218 200 182 171 172 176 184 188 179 169 167 164 161 160 158 156 157 155 152 150 150 152 154
244 248 250 250 256 259 255 254 252 248 251 253 253 256 258 261 266 267 269 274 275 274 272 268 265 269 271 268 264 266 268 264 263 266 265 264 265 263 263 265 263 264 268 269 270 265 255 256 263 260 251 254 261 262 257 261 270 263 253 247 253 246 223 220 230 225 207 189 184 189 192 190 186 181 178 178 172 166 166 164 164 166 166 163 163 163 165 168